Location: Andershausen
(51.8462°N, 9.8595°E)
Time: 13:01:00
(UTC+00:00)

Cosmos 2369 Rocket - Visible Passes

Search period start: 14 February 2026 00:00
Search period end: 24 February 2026 00:00
Orbit: 826 x 853 km, 71.0° (Epoch: 13 February)

Date Brightness Start Highest point End Pass type
(mag) Time Alt. Az. Time Alt. Az. Time Alt. Az.
14 Feb 4.7 01:49:46 16° NNE 01:49:46 16° NNE 01:50:56 10° NNE visible
14 Feb 4.1 03:31:31 19° NNW 03:31:31 19° NNW 03:34:30 10° NNE visible
14 Feb 4.4 05:15:25 10° NNW 05:16:55 11° N 05:18:24 10° N visible
15 Feb 4.8 01:34:18 15° NNE 01:34:18 15° NNE 01:35:12 10° NNE visible
15 Feb 4.1 03:16:03 18° NNW 03:16:03 18° NNW 03:18:47 10° NNE visible
15 Feb 4.4 04:59:33 10° NNW 05:01:05 11° N 05:02:38 10° N visible
16 Feb 4.9 01:18:50 13° NNE 01:18:50 13° NNE 01:19:27 10° NNE visible
16 Feb 4.2 03:00:35 18° N 03:00:35 18° N 03:03:04 10° NNE visible
16 Feb 4.4 04:43:39 10° NNW 04:45:15 11° N 04:46:50 10° N visible
17 Feb 5.0 01:03:21 12° NNE 01:03:21 12° NNE 01:03:44 10° NNE visible
17 Feb 4.3 02:45:06 18° N 02:45:06 18° N 02:47:21 10° NNE visible
17 Feb 4.5 04:27:46 10° NNW 04:29:25 11° N 04:31:04 10° N visible
18 Feb 5.1 00:47:51 11° NNE 00:47:51 11° NNE 00:47:59 10° NNE visible
18 Feb 4.4 02:29:36 17° N 02:29:36 17° N 02:31:37 10° NNE visible
18 Feb 4.5 04:11:52 10° NNW 04:13:35 11° N 04:15:18 10° N visible
19 Feb 4.5 02:14:05 17° N 02:14:05 17° N 02:15:54 10° NNE visible
19 Feb 4.5 03:55:58 10° NNW 03:57:45 11° N 03:59:33 10° N visible
19 Feb 4.5 05:41:44 10° N 05:44:31 14° NNE 05:47:18 10° NE visible
20 Feb 4.6 01:58:34 16° N 01:58:34 16° N 02:00:10 10° NNE visible
20 Feb 4.5 03:40:19 10° NNW 03:41:56 11° N 03:43:48 10° N visible
20 Feb 4.5 05:26:00 10° N 05:28:42 13° NNE 05:31:22 10° NE visible
21 Feb 4.6 01:43:02 16° N 01:43:02 16° N 01:44:27 10° NNE visible
21 Feb 4.5 03:24:47 11° NNW 03:26:06 12° N 03:28:02 10° N visible
21 Feb 4.5 05:10:17 10° N 05:12:52 13° NNE 05:15:27 10° NE visible
22 Feb 4.7 01:27:29 15° N 01:27:29 15° N 01:28:45 10° NNE visible
22 Feb 4.5 03:09:14 11° NNW 03:10:16 12° NNW 03:12:19 10° N visible
22 Feb 4.6 04:54:33 10° N 04:57:03 13° NNE 04:59:32 10° NE visible
23 Feb 4.8 01:11:56 14° N 01:11:56 14° N 01:13:02 10° NNE visible
23 Feb 4.6 02:53:41 12° NNW 02:54:26 12° NNW 02:56:33 10° N visible
23 Feb 4.6 04:38:50 10° N 04:41:13 13° NNE 04:43:37 10° NE visible
